Terminal Aerodrome Forecast
Issued by NWS Goodland, KS

Home | Current Version | Previous Version | Text Only | Print | Product List | Glossary On
Versions: 1 2 3 4 5 6 7 8 9 10 11 12
000
FTUS43 KGLD 261120
TAFGLD
TAF
KGLD 261120Z 2612/2712 28012G20KT P6SM SCT250
     FM261500 32015G25KT P6SM SCT250
     FM261700 34020G30KT P6SM SCT250
     FM262300 33011KT P6SM SKC=

USA.gov is the U.S. government's official web portal to all federal, state and local government web resources and services.